Date_and_time,latitude,longitude,wind_speed,RelWindDirFrom,WindDirFrom,air_pressure,air_temperature,relative_humidity,Temp,platform_speed_wrt_ground,air_pressure_at_mean_sea_level,platform_orientation
2019-02-25 23:50,50.6304416666667,-96.980765,5.7,7.4,217,1003.00,-16.8,49,0.34,0.0,1033.15,270.0
2019-02-26 00:00,50.63044,-96.9807566666667,6.2,8.1,214,1003.03,-17.4,51,0.34,0.0,1033.20,228.3
2019-02-26 00:10,50.6304416666667,-96.9807583333333,5.5,8.1,219,1003.05,-17.9,52,0.35,0.0,1033.24,228.3
2019-02-26 00:20,50.630445,-96.9807616666667,5.2,7.0,215,1003.08,-18.2,53,0.35,0.0,1033.28,228.3
2019-02-26 00:30,50.6304433333333,-96.9807633333333,6.3,7.8,206,1003.13,-18.5,54,0.35,0.0,1033.34,228.3
2019-02-26 00:40,50.630445,-96.980765,7.2,9.4,205,1003.26,-18.8,55,0.35,0.0,1033.50,228.3
2019-02-26 00:50,50.630445,-96.9807666666667,6.9,8.8,212,1003.34,-19.0,55,0.35,0.0,1033.59,228.3
2019-02-26 01:00,50.630445,-96.980765,7.0,9.4,210,1003.43,-19.2,56,0.35,0.0,1033.70,0.0
2019-02-26 01:10,50.6304466666667,-96.980765,7.9,10.0,213,1003.52,-19.4,56,0.35,0.0,1033.81,0.0
2019-02-26 01:20,50.6304466666667,-96.980765,8.3,10.5,214,1003.57,-19.6,57,0.35,0.0,1033.89,0.0
2019-02-26 01:30,50.6304466666667,-96.980765,7.7,10.7,216,1003.68,-19.7,57,0.36,0.0,1034.03,0.0
2019-02-26 01:40,50.6304466666667,-96.980765,7.2,9.0,222,1003.71,-19.8,57,0.36,0.0,1034.09,0.0
2019-02-26 01:50,50.6304683333333,-96.9807866666667,6.9,8.5,223,1003.80,-19.9,58,0.36,0.0,1034.22,0.0
2019-02-26 02:00,50.6304633333333,-96.9807833333333,6.4,8.5,229,1003.82,-20.0,58,0.36,0.0,1034.27,328.9
2019-02-26 02:10,50.630425,-96.9807066666667,5.7,7.0,226,1003.90,-20.2,59,0.36,0.0,1034.38,328.9
2019-02-26 02:20,50.6304416666667,-96.9807866666667,5.5,7.7,227,1003.98,-20.4,59,0.36,0.0,1034.50,328.9
2019-02-26 02:30,50.63045,-96.9807816666667,5.4,6.9,225,1004.02,-20.6,60,0.36,0.0,1034.57,328.9
2019-02-26 02:40,50.63045,-96.9807783333333,5.5,7.3,224,1004.05,-20.8,60,0.36,0.0,1034.63,328.9
2019-02-26 02:50,50.6304516666667,-96.9807783333333,7.1,8.7,223,1004.22,-21.1,61,0.36,0.0,1034.84,328.9
2019-02-26 03:00,50.6304533333333,-96.9807766666667,6.6,8.5,226,1004.29,-21.5,62,0.36,0.0,1034.94,311.7
2019-02-26 03:10,50.6304533333333,-96.9807733333333,6.7,9.0,229,1004.33,-21.7,63,0.36,0.0,1035.01,311.7
2019-02-26 03:20,50.6304516666667,-96.980775,6.6,9.1,240,1004.36,-21.7,63,0.36,0.0,1035.04,311.7
2019-02-26 03:30,50.630455,-96.980775,6.9,9.6,234,1004.45,-21.8,63,0.36,0.0,1035.15,311.7
2019-02-26 03:40,50.630455,-96.9807766666667,7.3,9.6,241,1004.47,-21.8,63,0.37,0.0,1035.18,311.7
2019-02-26 03:50,50.630455,-96.980785,6.8,9.5,240,1004.55,-21.9,63,0.36,0.0,1035.27,311.7
2019-02-26 04:00,50.6304566666667,-96.9807733333333,6.4,9.1,244,1004.59,-22.2,64,0.36,0.0,1035.35,345.5
2019-02-26 04:10,50.6304583333333,-96.9807683333333,6.3,8.1,241,1004.73,-22.2,64,0.36,0.0,1035.50,345.5
2019-02-26 04:20,50.6304583333333,-96.9807666666667,7.2,9.7,238,1004.91,-22.4,65,0.36,0.0,1035.71,345.5
2019-02-26 04:30,50.63044,-96.9807766666667,7.0,9.7,239,1004.97,-22.5,65,0.36,0.0,1035.79,345.5
2019-02-26 04:40,50.6304566666667,-96.98078,7.4,9.8,243,1004.98,-22.5,65,0.36,0.0,1035.82,345.5
2019-02-26 04:50,50.6304566666667,-96.9807716666667,7.3,10.1,236,1005.07,-22.7,65,0.36,0.0,1035.95,345.5
2019-02-26 05:00,50.630455,-96.9807716666667,7.4,9.6,236,1005.20,-22.7,66,0.36,0.0,1036.09,167.4
2019-02-26 05:10,50.6304566666667,-96.9807733333333,6.9,9.2,243,1005.26,-22.6,65,0.36,0.0,1036.15,167.4
2019-02-26 05:20,50.6304583333333,-96.9807733333333,6.9,9.3,234,1005.36,-22.8,66,0.36,0.0,1036.27,167.4
2019-02-26 05:30,50.6304433333333,-96.9807566666667,7.6,9.4,237,1005.45,-22.9,66,0.35,0.0,1036.38,167.4
2019-02-26 05:40,50.6304583333333,-96.9807783333333,7.7,10.1,238,1005.53,-23.0,66,0.35,0.0,1036.47,167.4
2019-02-26 05:50,50.6304533333333,-96.980775,7.5,9.5,239,1005.56,-23.1,66,0.35,0.0,1036.53,167.4
2019-02-26 06:00,50.6304533333333,-96.9807733333333,7.5,10.1,239,1005.57,-23.2,66,0.36,0.0,1036.54,0.0
2019-02-26 06:10,50.6304333333333,-96.980725,7.1,9.3,246,1005.42,-23.2,66,0.36,0.0,1036.40,0.0
2019-02-26 06:20,50.630465,-96.9807733333333,6.8,8.3,242,1005.44,-23.3,66,0.36,0.0,1036.44,0.0
2019-02-26 06:30,50.63045,-96.9807583333333,6.5,7.7,241,1005.50,-23.5,67,0.35,0.0,1036.51,0.0
2019-02-26 06:40,50.6304483333333,-96.98076,6.6,8.4,245,1005.47,-23.5,67,0.35,0.0,1036.49,0.0
2019-02-26 06:50,50.63045,-96.98076,6.5,8.3,247,1005.43,-23.3,67,0.35,0.0,1036.43,0.0
2019-02-26 07:00,50.63045,-96.9807616666667,6.6,8.1,246,1005.45,-23.3,66,0.34,0.0,1036.45,90.0
2019-02-26 07:10,50.63045,-96.980765,6.3,8.0,247,1005.46,-23.2,66,0.34,0.0,1036.47,90.0
2019-02-26 07:20,50.63046,-96.9807783333333,6.6,8.9,247,1005.54,-23.4,66,0.34,0.0,1036.57,90.0
2019-02-26 07:30,50.6304416666667,-96.980785,6.7,8.8,246,1005.54,-23.5,66,0.34,0.0,1036.58,90.0
2019-02-26 07:40,50.6304466666667,-96.980755,6.6,7.8,245,1005.59,-23.7,67,0.34,0.0,1036.65,90.0
2019-02-26 07:50,50.63045,-96.98076,6.3,7.9,244,1005.57,-23.8,67,0.35,0.0,1036.64,90.0
2019-02-26 08:00,50.6304516666667,-96.980765,6.5,7.7,237,1005.61,-24.0,67,0.34,0.0,1036.70,90.0
2019-02-26 08:10,50.6304483333333,-96.980815,7.2,8.8,235,1005.76,-24.0,67,0.34,0.0,1036.86,90.0
2019-02-26 08:20,50.6304516666667,-96.98077,7.6,9.9,235,1005.81,-23.9,67,0.34,0.0,1036.91,90.0
2019-02-26 08:30,50.6304533333333,-96.9807716666667,7.7,10.5,238,1005.82,-23.8,66,0.33,0.0,1036.92,90.0
2019-02-26 08:40,50.6304516666667,-96.9807733333333,7.6,9.5,237,1005.68,-24.0,66,0.33,0.0,1036.77,90.0
2019-02-26 08:50,50.63045,-96.9807716666667,7.2,9.7,244,1005.60,-24.2,67,0.33,0.0,1036.71,90.0
2019-02-26 09:00,50.6304483333333,-96.98074,7.8,10.4,250,1005.52,-24.1,67,0.33,0.0,1036.61,106.8
2019-02-26 09:10,50.6304566666667,-96.98076,7.5,9.1,250,1005.48,-24.0,66,0.34,0.0,1036.57,106.8
2019-02-26 09:20,50.6304533333333,-96.9807633333333,7.5,9.1,244,1005.56,-24.4,67,0.34,0.0,1036.68,106.8
2019-02-26 09:30,50.630455,-96.9807633333333,7.2,8.7,246,1005.54,-24.6,67,0.33,0.0,1036.69,106.8
2019-02-26 09:40,50.630455,-96.980765,7.4,9.0,249,1005.44,-24.6,67,0.33,0.0,1036.59,106.8
2019-02-26 09:50,50.6304533333333,-96.980765,6.9,9.1,251,1005.30,-24.6,68,0.33,0.0,1036.47,106.8
2019-02-26 10:00,50.6304516666667,-96.980765,7.5,9.3,248,1005.34,-24.8,68,0.33,0.0,1036.52,270.0
2019-02-26 10:10,50.6304583333333,-96.98078,7.5,8.8,247,1005.24,-24.8,68,0.33,0.0,1036.41,270.0
2019-02-26 10:20,50.63045,-96.9807683333333,8.1,9.8,242,1005.23,-25.0,68,0.33,0.0,1036.41,270.0
2019-02-26 10:30,50.63046,-96.9807583333333,4.3,9.1,231,1005.23,-25.0,68,0.33,0.0,1036.42,270.0
2019-02-26 10:40,50.6304433333333,-96.9807466666667,3.0,4.7,180,1005.29,-25.5,68,0.33,0.0,1036.52,270.0
2019-02-26 10:50,50.63045,-96.9807666666667,4.1,5.8,184,1005.26,-25.6,68,0.33,0.0,1036.49,270.0
2019-02-26 11:00,50.6304483333333,-96.980765,6.0,7.3,158,1005.20,-26.3,69,0.33,0.0,1036.47,360.0
2019-02-26 11:10,50.6304483333333,-96.9807666666667,4.4,6.0,183,1005.14,-27.0,70,0.33,0.0,1036.48,360.0
2019-02-26 11:20,50.63045,-96.9807666666667,3.3,4.2,184,1005.18,-26.5,71,0.32,0.0,1036.50,360.0
2019-02-26 11:30,50.63045,-96.9807683333333,2.9,3.8,203,1005.17,-26.3,71,0.32,0.0,1036.48,360.0
2019-02-26 11:40,50.6304516666667,-96.9807716666667,3.4,5.0,156,1005.25,-26.4,71,0.32,0.0,1036.57,360.0
2019-02-26 11:50,50.630455,-96.9807716666667,6.7,8.1,157,1005.36,-27.2,71,0.32,0.0,1036.75,360.0
2019-02-26 12:00,50.630455,-96.9807666666667,5.8,7.4,174,1005.37,-27.8,71,0.32,0.0,1036.79,291.5
2019-02-26 12:10,50.6304533333333,-96.9807666666667,4.4,4.8,179,1005.31,-27.8,72,0.33,0.0,1036.74,291.5
2019-02-26 12:20,50.6304516666667,-96.9807666666667,4.5,5.2,169,1005.28,-27.9,72,0.32,0.0,1036.71,291.5
2019-02-26 12:30,50.6304516666667,-96.9807666666667,5.3,6.2,177,1005.22,-28.1,72,0.31,0.0,1036.70,291.5
2019-02-26 12:40,50.6304533333333,-96.9807683333333,5.8,6.5,183,1005.18,-28.0,72,0.31,0.0,1036.66,291.5
2019-02-26 12:50,50.6304533333333,-96.9807683333333,4.7,5.4,181,1005.22,-27.8,72,0.31,0.0,1036.73,291.5
2019-02-26 13:00,50.630465,-96.9807783333333,5.1,6.1,178,1005.35,-27.8,71,0.31,0.0,1036.92,318.8
2019-02-26 13:10,50.6304616666667,-96.98078,7.0,8.0,174,1005.37,-28.3,71,0.31,0.0,1036.93,318.8
2019-02-26 13:20,50.6304616666667,-96.9807733333333,5.7,7.8,186,1005.23,-28.3,70,0.31,0.0,1036.78,318.8
2019-02-26 13:30,50.63046,-96.9807733333333,3.8,4.4,181,1005.16,-28.4,70,0.31,0.0,1036.72,318.8
2019-02-26 13:40,50.63045,-96.9807666666667,3.0,4.1,189,1005.11,-28.4,70,0.31,0.0,1036.72,318.8
2019-02-26 13:50,50.6304533333333,-96.98076,4.3,5.3,173,1005.05,-28.6,69,0.31,0.0,1036.70,318.8
2019-02-26 14:00,50.6304533333333,-96.9807583333333,4.1,5.6,180,1004.89,-28.7,69,0.31,0.0,1036.55,48.3
2019-02-26 14:10,50.6304516666667,-96.98076,4.2,5.6,170,1004.78,-28.4,69,0.30,0.0,1036.42,48.3
2019-02-26 14:20,50.630445,-96.9807716666667,4.1,5.1,172,1004.81,-28.3,68,0.31,0.0,1036.46,48.3
2019-02-26 14:30,50.6304516666667,-96.9807716666667,5.5,7.2,156,1004.81,-28.1,68,0.32,0.0,1036.43,48.3
2019-02-26 14:40,50.6304766666667,-96.9807733333333,4.1,5.8,162,1004.91,-27.4,68,0.32,0.0,1036.49,48.3
2019-02-26 14:50,50.630455,-96.9807633333333,5.8,7.6,175,1004.91,-26.9,67,0.32,0.0,1036.45,48.3
2019-02-26 15:00,50.6304533333333,-96.9807633333333,6.2,8.9,186,1004.81,-26.8,66,0.32,0.0,1036.37,0.0
2019-02-26 15:10,50.630455,-96.9807666666667,6.4,9.5,176,1004.88,-26.6,65,0.31,0.0,1036.43,0.0
2019-02-26 15:20,50.6304533333333,-96.9807666666667,8.5,10.1,181,1004.97,-26.6,65,0.30,0.0,1036.53,0.0
2019-02-26 15:30,50.630455,-96.9807683333333,8.0,10.9,185,1005.18,-26.2,64,0.30,0.0,1036.72,0.0
2019-02-26 15:40,50.630455,-96.98077,9.3,11.2,182,1005.12,-26.1,63,0.30,0.0,1036.67,0.0
2019-02-26 15:50,50.6304533333333,-96.9807683333333,7.4,9.3,182,1005.03,-25.8,63,0.30,0.0,1036.56,0.0
2019-02-26 16:00,50.6304533333333,-96.98077,8.0,9.9,175,1004.86,-25.6,62,0.30,0.0,1036.35,148.9
2019-02-26 16:10,50.6304583333333,-96.9807666666667,9.0,11.7,175,1004.72,-25.3,62,0.29,0.0,1036.18,148.9
2019-02-26 16:20,50.630455,-96.9807733333333,8.9,11.7,183,1004.61,-24.9,62,0.29,0.0,1036.04,148.9
2019-02-26 16:30,50.6304516666667,-96.98077,7.8,9.3,184,1004.41,-24.7,62,0.30,0.0,1035.77,148.9
2019-02-26 16:40,50.6304416666667,-96.9807716666667,7.2,9.9,180,1004.22,-24.3,61,0.30,0.0,1035.52,148.9
2019-02-26 16:50,50.6304416666667,-96.9807733333333,7.1,9.0,180,1004.13,-23.9,60,0.29,0.0,1035.39,148.9
2019-02-26 17:00,50.6304466666667,-96.9807766666667,7.5,9.6,178,1003.99,-23.7,61,0.30,0.0,1035.22,240.8
2019-02-26 17:10,50.6304466666667,-96.9807766666667,8.4,10.3,183,1003.91,-23.6,60,0.30,0.0,1035.13,240.8
2019-02-26 17:20,50.6304466666667,-96.980775,10.5,13.4,182,1004.02,-23.5,60,0.30,0.0,1035.21,240.8
2019-02-26 17:30,50.6304516666667,-96.9807916666667,11.0,14.1,188,1003.95,-23.4,60,0.30,0.0,1035.13,240.8
2019-02-26 17:40,50.6304516666667,-96.9807733333333,9.7,11.9,180,1003.79,-23.2,60,0.31,0.0,1034.94,240.8
2019-02-26 17:50,50.6304516666667,-96.9807766666667,10.1,12.2,178,1003.67,-23.2,61,0.30,0.0,1034.79,240.8
2019-02-26 18:00,50.6304516666667,-96.98078,9.8,13.6,178,1003.75,-22.9,61,0.30,0.0,1034.84,270.0
2019-02-26 18:10,50.6304516666667,-96.9807766666667,8.3,11.2,188,1003.72,-22.3,60,0.30,0.0,1034.75,270.0
2019-02-26 18:20,50.63045,-96.9807766666667,8.6,11.1,188,1003.46,-21.7,59,0.30,0.0,1034.42,270.0
2019-02-26 18:30,50.63046,-96.9807716666667,10.0,12.0,177,1003.47,-21.5,59,0.30,0.0,1034.40,270.0
2019-02-26 18:40,50.630425,-96.98075,10.9,14.5,177,1003.44,-21.2,60,0.30,0.0,1034.32,270.0
2019-02-26 18:50,50.6304466666667,-96.980765,12.8,16.5,181,1003.43,-20.7,59,0.31,0.0,1034.27,270.0
2019-02-26 19:00,50.63046,-96.9807666666667,11.5,15.0,185,1003.47,-20.3,59,0.31,0.0,1034.28,360.0
2019-02-26 19:10,50.6304416666667,-96.9807583333333,10.8,14.9,183,1003.23,-19.7,58,0.31,0.0,1033.99,360.0
2019-02-26 19:20,50.6304466666667,-96.98076,12.6,15.3,181,1002.93,-19.4,58,0.30,0.0,1033.66,360.0
2019-02-26 19:30,50.630445,-96.98073,12.0,15.9,183,1002.75,-19.3,59,0.30,0.0,1033.46,360.0
2019-02-26 19:40,50.6304566666667,-96.9807566666667,12.4,15.1,182,1002.58,-19.1,59,0.30,0.0,1033.26,360.0
2019-02-26 19:50,50.6304566666667,-96.9807583333333,12.2,16.4,184,1002.53,-18.8,58,0.30,0.0,1033.18,360.0
2019-02-26 20:00,50.6304566666667,-96.9807633333333,11.9,15.3,181,1002.43,-18.7,58,0.30,0.0,1033.03,48.3
2019-02-26 20:10,50.630455,-96.9807616666667,12.7,15.4,182,1002.35,-18.5,58,0.30,0.0,1032.90,48.3
2019-02-26 20:20,50.6304533333333,-96.9807616666667,13.4,18.3,185,1002.13,-18.4,58,0.30,0.0,1032.65,48.3
2019-02-26 20:30,50.6304783333333,-96.98077,11.7,15.1,187,1001.90,-18.2,58,0.30,0.0,1032.39,48.3
2019-02-26 20:40,50.6304633333333,-96.9807183333333,11.9,15.2,182,1001.73,-18.0,58,0.30,0.0,1032.16,48.3
2019-02-26 20:50,50.63046,-96.9807466666667,11.6,14.3,179,1001.51,-17.7,58,0.31,0.0,1031.89,48.3
2019-02-26 21:00,50.630435,-96.980775,12.0,14.4,180,1001.37,-17.5,58,0.31,0.0,1031.70,176.8
2019-02-26 21:10,50.630445,-96.9807733333333,13.0,16.8,179,1001.32,-17.5,59,0.31,0.0,1031.64,176.8
2019-02-26 21:20,50.6304366666667,-96.9807833333333,14.8,18.2,181,1001.23,-17.6,60,0.31,0.0,1031.55,176.8
2019-02-26 21:30,50.6304416666667,-96.9807816666667,12.5,16.3,185,1001.29,-17.6,61,0.32,0.0,1031.59,176.8
2019-02-26 21:40,50.6304433333333,-96.980775,11.3,14.5,184,1001.33,-17.6,61,0.33,0.0,1031.61,176.8
2019-02-26 21:50,50.6304433333333,-96.980775,13.5,15.8,181,1001.17,-17.5,61,0.33,0.0,1031.44,176.8
2019-02-26 22:00,50.630445,-96.9807733333333,14.2,17.9,181,1001.01,-17.3,62,0.33,0.0,1031.25,360.0
2019-02-26 22:10,50.630445,-96.9807716666667,14.8,18.7,183,1000.94,-17.1,62,0.33,0.0,1031.16,360.0
2019-02-26 22:20,50.6304416666667,-96.980765,12.5,16.1,186,1000.93,-17.1,62,0.33,0.0,1031.14,360.0
2019-02-26 22:30,50.6304483333333,-96.98077,12.6,15.7,181,1000.83,-17.1,62,0.33,0.0,1031.02,360.0
2019-02-26 22:40,50.6304483333333,-96.98077,11.1,14.4,185,1000.83,-17.2,62,0.33,0.0,1031.00,360.0
2019-02-26 22:50,50.6304466666667,-96.98077,11.8,15.0,184,1000.70,-17.2,62,0.33,0.0,1030.86,360.0
2019-02-26 23:00,50.6304483333333,-96.9807733333333,10.5,13.4,183,1000.68,-17.4,63,0.33,0.0,1030.86,228.3
2019-02-26 23:10,50.6304466666667,-96.9807716666667,9.3,11.9,184,1000.72,-17.5,63,0.33,0.0,1030.91,228.3
2019-02-26 23:20,50.630445,-96.98077,8.3,10.9,185,1000.75,-17.6,64,0.34,0.0,1030.95,228.3
2019-02-26 23:30,50.6304583333333,-96.9807733333333,9.5,11.3,180,1000.52,-17.7,64,0.34,0.0,1030.71,228.3
2019-02-26 23:40,50.63043,-96.980745,9.9,12.1,178,1000.35,-17.8,65,0.35,0.0,1030.54,228.3
2019-02-26 23:50,50.630445,-96.9807566666667,10.3,13.1,178,1000.25,-17.9,65,0.35,0.0,1030.43,228.3
